Flag for Germany Weather past 2 weeks in Bünde, North Rhine-Westphalia, Germany

Now
45 °F

Sprinkles. Partly sunny.


Feels Like: 35 °F
Forecast: 40 / 48 °F
Wind: 29 mph from Northwest

Location: Bueckeburg

Current Time: Mar 30, 2015 at 12:37:52 PM

Latest Report: Mar 30, 2015 at 12:00 PM


Visibility: N/A

Pressure: 29.47 "Hg

Humidity: 66%

Dew point: 34 °F

Location of BündeLocation

Historic Weather in Bünde — Graph

°F

Bünde temperature yesterday

Maximum temperature yesterday: 52 °F (at 1:20 AM)
Minimum temperature yesterday: 45 °F (at 11:20 PM)
Average temperature yesterday: 50 °F

Past Weeks' High & Low Weather Summary

 TemperatureHumidityPressure
High63 °F (Mar 25, 3:20 PM)100% (Mar 18, 3:20 AM)30.39 "Hg (Mar 18, 3:20 AM)
Low30 °F (Mar 20, 5:20 AM)39% (Mar 25, 3:20 PM)29.09 "Hg (Mar 29, 8:20 PM)
Average43 °F78%30.01 "Hg
* Reported Mar 15 10:20 AM — Mar 30 11:20 AM, Bünde, Weather by CustomWeather, © 2015

Note: Actual official high and low records may vary slightly from our data, if they occured in-between our weather recording intervals... More about our weather records

Advertising

Bünde weather history for previous 24 hours

 ConditionsComfort  
Time TempWeatherWind HumidityBarometerVisibility
11:20 AM
Mon, Mar 30
45 °FPartly sunny.28 mph66%29.45 "HgN/A
10:20 AM43 °FPartly sunny.31 mph71%29.42 "HgN/A
9:20 AM43 °FPartly sunny.25 mph71%29.39 "HgN/A
8:20 AM39 °FBroken clouds.23 mph87%29.39 "HgN/A
7:20 AM43 °FPartly cloudy.15 mph71%29.33 "HgN/A
6:20 AM43 °FPartly cloudy.23 mph71%29.33 "HgN/A
5:20 AM43 °FPartly cloudy.13 mph81%29.27 "HgN/A
4:57 AM43 °FPassing clouds.22 mph81%29.27 "Hg5 mi
4:49 AM43 °FSprinkles. Passing clouds.25 mph81%29.27 "Hg3 mi
4:20 AM45 °FPassing clouds.17 mph81%29.27 "HgN/A
3:20 AM45 °FPassing clouds.18 mph81%29.30 "HgN/A
2:20 AM45 °FPassing clouds.20 mph81%29.27 "HgN/A
1:20 AM45 °FPartly cloudy.22 mph76%29.27 "HgN/A
12:20 AM45 °FPartly cloudy.23 mph81%29.24 "HgN/A
11:20 PM
Sun, Mar 29
45 °FPartly cloudy.30 mph81%29.21 "HgN/A
10:20 PM48 °FPassing clouds.30 mph76%29.15 "HgN/A
9:20 PM50 °FPartly cloudy.22 mph82%29.09 "HgN/A
8:20 PM52 °FRain. Fog.25 mph82%29.09 "Hg2 mi
7:50 PM52 °FRain. Fog.24 mph88%29.12 "Hg2 mi
7:20 PM50 °FCool.21 mph94%29.12 "Hg3 mi
6:20 PM50 °FCool.20 mph88%29.18 "Hg2 mi
5:20 PM50 °FCool.15 mph88%29.24 "Hg3 mi
4:20 PM48 °FCool.13 mph94%29.33 "Hg3 mi
3:20 PM50 °FCool.17 mph82%29.39 "Hg3 mi
2:20 PM50 °FCool.14 mph88%29.45 "Hg2 mi
1:20 PM48 °FCool.10 mph94%29.47 "Hg2 mi
12:20 PM48 °FCool.16 mph87%29.50 "Hg1 mi
Weather by CustomWeather, © 2015

See weather overviewHow to use our weather pages